Location: Nitra
(0.0000°N, 18.0833°E)
Time: 03:32:25
(UTC+01:00)

OAO 3 Rocket - Pass Details

Date: 25 September 2022
Orbit: 628 x 680 km, 35.0° (Epoch: 01 December)

Event Time Altitude Azimuth Distance (km) Brightness Sun altitude
Rises 19:37:34 0° 298° (WNW) 2,950 7.7 -14.6°
Reaches altitude 10° 19:40:00 10° 292° (WNW) 2,033 6.8 -15.2°
Maximum altitude 19:44:34 50° 217° (SW) 814 3.9 -16.3°
Enters shadow 19:48:21 14° 145° (SE) 1,732 5.0 -17.3°
